Weather History for PAFA - May, 2013

Change the Weather History Date:

Sunday, May 12, 2013

  Actual Average Record
Temperature  
Mean Temperature 45 °F 48 °F  
Max Temperature 52 °F 60 °F 81 °F (1942)
Min Temperature 37 °F 36 °F 20 °F (1917)
Degree Days  
Heating Degree Days 20 17  
Month to date heating degree days 348 235  
Since 1 July heating degree days 14507 13259  
Cooling Degree Days 0 0  
Month to date cooling degree days 0 0  
Year to date cooling degree days 0 0  
Moisture  
Dew Point 27 °F    
Average Humidity 50    
Maximum Humidity 73    
Minimum Humidity 24    
Precipitation  
Precipitation 0.00 in 0.02 in 0.78 in (1992)
Month to date precipitation 0.11 0.20  
Year to date precipitation 2.30 1.76  
Snow  
Snow 0.00 in 0.10 in 9.40 in (1992)
Month to date snowfall 1.7 0.6  
Since 1 July snowfall 68.3 64.7  
Snow Depth T in    
Sea Level Pressure  
Sea Level Pressure 29.57 in    
Wind  
Wind Speed 4 mph (SW)    
Max Wind Speed 15 mph    
Max Gust Speed 18 mph    
Visibility 10 miles    
Events      
T = Trace of Precipitation, MM = Missing Value Source: NWS Daily Summary

Daily Weather History Graph

Daily Weather History Graph

Search for Another Location

Airport or City:

Trip Planner

Search our weather history database for the weather conditions in past years. The results will help you decide how hot, cold, wet, or windy it might be!

Date:

Astronomy

May. 12, 2013 Rise Set
Actual Time 4:37 AM AKDT 11:00 PM AKDT
Civil Twilight 2:53 AM AKDT 12:50 AM AKDT
Nautical Twilight Sun does not rise Sun does not rise
Astronomical Twilight Sun does not rise Sun does not rise
Moon 6:25 AM AKDT (5/12) 1:01 AM AKDT (5/12)
Length of Visible Light 21h 56m
Length of Day
18h 22m
Waxing Crescent, 7% of the Moon is Illuminated
May 12
Waxing Crescent
May 17
First Quarter
May 24
Full
May 31
Last Quarter
Jun 8
New

Hourly Weather History & Observations

Time (AKDT) Temp. Windchill Dew Point Humidity Pressure Visibility Wind Dir Wind Speed Gust Speed Precip Events Conditions
12:53 AM 46.9 °F - 27.0 °F 46% 29.67 in 10.0 mi Calm Calm - N/A   Overcast
1:53 AM 45.0 °F 41.2 °F 27.0 °F 49% 29.66 in 10.0 mi North 6.9 mph - N/A   Overcast
2:53 AM 42.1 °F - 28.9 °F 60% 29.65 in 10.0 mi Calm Calm - N/A   Mostly Cloudy
3:53 AM 39.0 °F - 28.0 °F 65% 29.64 in 10.0 mi Calm Calm - N/A   Mostly Cloudy
4:53 AM 37.9 °F 35.5 °F 28.0 °F 68% 29.63 in 10.0 mi SSW 3.5 mph - N/A   Mostly Cloudy
5:53 AM 37.9 °F 35.5 °F 28.0 °F 68% 29.62 in 10.0 mi WSW 3.5 mph - N/A   Mostly Cloudy
6:53 AM 37.0 °F 34.5 °F 28.9 °F 73% 29.62 in 10.0 mi South 3.5 mph - N/A   Mostly Cloudy
7:53 AM 37.9 °F 35.5 °F 28.9 °F 70% 29.62 in 10.0 mi South 3.5 mph - N/A   Overcast
8:53 AM 39.9 °F - 28.9 °F 65% 29.62 in 10.0 mi Calm Calm - N/A   Overcast
9:53 AM 42.1 °F - 28.9 °F 60% 29.61 in 10.0 mi Calm Calm - N/A   Mostly Cloudy
10:53 AM 44.1 °F - 28.9 °F 55% 29.60 in 10.0 mi Calm Calm - N/A   Mostly Cloudy
11:53 AM 44.1 °F 41.5 °F 28.9 °F 55% 29.59 in 10.0 mi South 4.6 mph - N/A   Mostly Cloudy
12:53 PM 48.9 °F - 28.0 °F 44% 29.56 in 10.0 mi SSW 9.2 mph - N/A   Mostly Cloudy
1:53 PM 50.0 °F - 27.0 °F 41% 29.55 in 10.0 mi SSW 9.2 mph - N/A   Scattered Clouds
2:53 PM 50.0 °F - 25.0 °F 38% 29.54 in 10.0 mi SSW 12.7 mph 17.3 mph N/A   Partly Cloudy
3:53 PM 50.0 °F - 24.1 °F 36% 29.52 in 10.0 mi Variable 6.9 mph 16.1 mph N/A   Partly Cloudy
4:53 PM 50.0 °F - 26.1 °F 39% 29.50 in 10.0 mi WSW 9.2 mph - N/A   Partly Cloudy
5:53 PM 51.1 °F - 25.0 °F 36% 29.49 in 10.0 mi WSW 8.1 mph 18.4 mph N/A   Scattered Clouds
6:53 PM 52.0 °F - 26.1 °F 37% 29.48 in 10.0 mi WSW 9.2 mph - N/A   Mostly Cloudy
7:53 PM 50.0 °F - 25.0 °F 38% 29.48 in 10.0 mi West 11.5 mph - N/A   Mostly Cloudy
8:53 PM 48.0 °F - 26.1 °F 42% 29.48 in 10.0 mi WNW 15.0 mph - N/A   Mostly Cloudy
9:53 PM 45.0 °F 38.5 °F 27.0 °F 49% 29.49 in 10.0 mi NW 13.8 mph - N/A   Mostly Cloudy
10:53 PM 42.1 °F 37.7 °F 27.0 °F 55% 29.51 in 10.0 mi Variable 6.9 mph - N/A   Overcast
11:53 PM 39.9 °F 32.9 °F 26.1 °F 58% 29.52 in 10.0 mi West 11.5 mph - N/A   Overcast